Location: Winthrop
(48.4780°N, 120.1850°W)
Time: 17:30:31
(UTC-07:00)

Explorer 7 - Pass Details

Date: 05 February 2023
Orbit: 478 x 657 km, 50.3° (Epoch: 30 March)

Event Time Altitude Azimuth Distance (km) Brightness Sun altitude
Rises 14:36:23 0° 282° (WNW) 2,758 10.7 18.4°
Reaches altitude 10° 14:38:35 10° 284° (WNW) 1,891 9.9 18.2°
Maximum altitude 14:42:56 76° 10° (N) 627 7.2 17.8°
Drops below altitude 10° 14:47:32 10° 96° (E) 2,001 9.4 17.3°
Sets 14:49:55 0° 98° (E) 2,932 10.2 17.1°
